Waarnemingen

Advertentie
Mijn weer
Pantelleria, Italië (16470): temperatuur & dauwpunt: 11.01.2019 01:00:00 - 17.01.2019 01:00:00 (CET)Pantelleria, Italië (16470): windsnelheid: 11.01.2019 01:00:00 - 17.01.2019 01:00:00 (CET)Pantelleria, Italië (16470): windrichting: 11.01.2019 01:00:00 - 17.01.2019 01:00:00 (CET)Pantelleria, Italië (16470): luchtdruk: 11.01.2019 01:00:00 - 17.01.2019 01:00:00 (CET)Pantelleria, Italië (16470): zicht: 11.01.2019 01:00:00 - 17.01.2019 01:00:00 (CET)Pantelleria, Italië (16470): Zonneschijnduur: 11.01.2019 01:00:00 - 17.01.2019 01:00:00 (CET)
Datum & Tijd tt [°C] td [°C] ff [km/u] ff [kn] dd ppp [hPa] vv [km] sd [min]
17.01.2019 01:00:00 - - - - - - - -
17.01.2019 00:00:00 - - - - - - - -
16.01.2019 23:00:00 - - - - - - - -
16.01.2019 22:00:00 - - - - - - - -
16.01.2019 21:00:00 - - - - - - - -
16.01.2019 20:00:00 - - - - - - - -
16.01.2019 19:00:00 10,0 6,8 13 7 ZZW 1022,6 15 0
16.01.2019 18:00:00 12,0 7,5 16 9 ZZW 1022,3 18 18
16.01.2019 17:00:00 12,2 7,5 16 9 ZW 1022,1 20 60
16.01.2019 16:00:00 13,0 7,0 18 10 ZZW 1022,1 10 60
16.01.2019 15:00:00 13,2 7,3 21 11 ZZW 1022,3 30 60
16.01.2019 14:00:00 13,4 7,4 21 11 ZW 1022,7 30 60
16.01.2019 13:00:00 13,2 7,4 21 11 ZZW 1023,4 30 60
16.01.2019 12:00:00 13,0 8,0 13 7 ZZW 1023,9 30 60
16.01.2019 11:00:00 12,6 7,9 21 11 Z 1024,7 30 60
16.01.2019 10:00:00 11,8 7,9 13 7 Z 1024,5 30 42
16.01.2019 09:00:00 10,4 6,8 11 6 Z 1024,3 30 12
16.01.2019 08:00:00 9,2 5,6 8 4 Z 1024,3 30 0
16.01.2019 07:00:00 9,6 6,0 5 3 Z 1023,4 15 0
16.01.2019 06:00:00 - - - - - - - -
16.01.2019 05:00:00 - - - - - - - -
16.01.2019 04:00:00 - - - - - - - -
16.01.2019 03:00:00 - - - - - - - -
16.01.2019 02:00:00 - - - - - - - -
16.01.2019 01:00:00 - - - - - - - -
16.01.2019 00:00:00 - - - - - - - -
15.01.2019 23:00:00 - - - - - - - -
15.01.2019 22:00:00 - - - - - - - -
15.01.2019 21:00:00 - - - - - - - -
15.01.2019 20:00:00 - - - - - - - -
15.01.2019 19:00:00 11,6 7,9 13 7 NNW 1020,7 15 0
15.01.2019 18:00:00 12,0 8,7 15 8 N 1019,9 15 0
15.01.2019 17:00:00 12,4 9,0 15 8 N 1019,1 15 54
15.01.2019 16:00:00 12,8 10,0 24 13 WNW 1018,6 15 48
15.01.2019 15:00:00 13,4 10,6 18 10 NNW 1018,0 15 54
15.01.2019 14:00:00 13,4 10,6 21 11 NNW 1017,7 15 54
15.01.2019 13:00:00 13,0 10,4 22 12 N 1017,7 10 18
15.01.2019 12:00:00 13,4 10,6 28 15 N 1017,6 10 60
15.01.2019 11:00:00 13,2 10,4 28 15 N 1017,6 10 60
15.01.2019 10:00:00 12,8 10,0 28 15 NNO 1016,8 10 30
15.01.2019 09:00:00 12,6 10,0 28 15 N 1015,8 7 0
15.01.2019 08:00:00 12,0 9,4 28 15 N 1014,9 7 0
15.01.2019 07:00:00 12,0 9,4 37 20 NNW 1014,5 7 0
15.01.2019 06:00:00 - - - - - - - -
15.01.2019 05:00:00 - - - - - - - -
15.01.2019 04:00:00 - - - - - - - -
15.01.2019 03:00:00 - - - - - - - -
15.01.2019 02:00:00 - - - - - - - -
15.01.2019 01:00:00 - - - - - - - -
15.01.2019 00:00:00 - - - - - - - -
14.01.2019 23:00:00 - - - - - - - -
14.01.2019 22:00:00 - - - - - - - -
14.01.2019 21:00:00 - - - - - - - -
14.01.2019 20:00:00 - - - - - - - -
14.01.2019 19:00:00 13,0 10,4 50 27 NW 1008,7 7 0
14.01.2019 18:00:00 13,2 10,5 46 25 NNW 1008,2 7 0
14.01.2019 17:00:00 13,2 10,5 48 26 NNW 1007,6 7 0
14.01.2019 16:00:00 13,6 10,4 61 33 NNW 1007,2 8 18
14.01.2019 15:00:00 13,4 10,8 65 35 NW 1006,6 8 0
14.01.2019 14:00:00 12,8 10,2 55 30 WNW 1006,7 7 0
14.01.2019 13:00:00 13,2 10,4 39 21 WNW 1007,2 11 12
14.01.2019 12:00:00 13,6 10,8 52 28 NW 1008,5 11 12
14.01.2019 11:00:00 13,4 10,6 55 30 NW 1009,3 8 0
14.01.2019 10:00:00 13,0 10,5 52 28 NW 1009,7 8 0
14.01.2019 09:00:00 12,8 10,2 42 23 NW 1009,5 8 0
14.01.2019 08:00:00 12,2 9,6 34 18 W 1009,6 8 0
14.01.2019 07:00:00 11,4 9,0 39 21 W 1010,7 8 0
14.01.2019 06:00:00 - - - - - - - -
14.01.2019 05:00:00 - - - - - - - -
14.01.2019 04:00:00 - - - - - - - -
14.01.2019 03:00:00 - - - - - - - -
14.01.2019 02:00:00 - - - - - - - -
14.01.2019 01:00:00 - - - - - - - -
14.01.2019 00:00:00 - - - - - - - -
13.01.2019 23:00:00 - - - - - - - -
13.01.2019 22:00:00 - - - - - - - -
13.01.2019 21:00:00 - - - - - - - -
13.01.2019 20:00:00 - - - - - - - -
13.01.2019 19:00:00 10,4 8,0 42 23 WNW 1014,6 8 0
13.01.2019 18:00:00 10,6 8,2 37 20 NW 1014,6 8 0
13.01.2019 17:00:00 10,4 8,0 37 20 NNW 1014,6 8 0
13.01.2019 16:00:00 10,8 8,4 37 20 WNW 1014,8 8 6
13.01.2019 15:00:00 12,8 10,2 37 20 NW 1015,1 11 0
13.01.2019 14:00:00 12,2 9,6 37 20 NW 1015,7 11 0
13.01.2019 13:00:00 12,0 8,8 34 18 NNW 1016,9 12 0
13.01.2019 12:00:00 11,8 8,8 28 15 NNW 1017,8 10 0
13.01.2019 11:00:00 11,2 8,8 37 20 NNW 1018,6 11 0
13.01.2019 10:00:00 12,0 8,7 28 15 NNW 1018,3 12 0
13.01.2019 09:00:00 10,6 8,0 22 12 NNW 1018,2 12 0
13.01.2019 08:00:00 10,4 7,8 21 11 NNW 1018,4 12 0
13.01.2019 07:00:00 10,0 7,6 18 10 NNW 1018,5 10 0
13.01.2019 06:00:00 - - - - - - - -
13.01.2019 05:00:00 - - - - - - - -
13.01.2019 04:00:00 - - - - - - - -
13.01.2019 03:00:00 - - - - - - - -
13.01.2019 02:00:00 - - - - - - - -
13.01.2019 01:00:00 - - - - - - - -
13.01.2019 00:00:00 - - - - - - - -
12.01.2019 23:00:00 - - - - - - - -
12.01.2019 22:00:00 - - - - - - - -
12.01.2019 21:00:00 - - - - - - - -
12.01.2019 20:00:00 - - - - - - - -
12.01.2019 19:00:00 8,0 5,6 18 10 NNW 1020,0 12 0
12.01.2019 18:00:00 8,8 5,9 31 17 N 1019,3 12 0
12.01.2019 17:00:00 9,2 5,6 37 20 N 1018,9 12 12
12.01.2019 16:00:00 9,6 5,4 29 16 N 1018,7 12 42
12.01.2019 15:00:00 10,0 5,2 34 18 NNO 1018,5 20 42
12.01.2019 14:00:00 9,4 6,0 28 15 N 1018,5 20 48
12.01.2019 13:00:00 9,4 6,3 28 15 NNO 1018,7 15 60
12.01.2019 12:00:00 8,0 5,5 28 15 NNO 1019,0 10 0
12.01.2019 11:00:00 9,4 5,8 28 15 NNO 1018,3 15 42
12.01.2019 10:00:00 8,4 5,2 18 10 NO 1018,1 15 0
12.01.2019 09:00:00 7,8 5,3 16 9 NNO 1017,5 10 24
12.01.2019 08:00:00 6,2 3,9 28 15 NNO 1017,0 10 0
12.01.2019 07:00:00 8,2 5,0 35 19 NNO 1015,2 10 0
12.01.2019 06:00:00 - - - - - - - -
12.01.2019 05:00:00 - - - - - - - -
12.01.2019 04:00:00 - - - - - - - -
12.01.2019 03:00:00 - - - - - - - -
12.01.2019 02:00:00 - - - - - - - -
12.01.2019 01:00:00 - - - - - - - -
12.01.2019 00:00:00 - - - - - - - -
11.01.2019 23:00:00 - - - - - - - -
11.01.2019 22:00:00 - - - - - - - -
11.01.2019 21:00:00 - - - - - - - -
11.01.2019 20:00:00 - - - - - - - -
11.01.2019 19:00:00 8,0 5,1 24 13 N 1014,7 10 0
11.01.2019 18:00:00 8,6 4,4 24 13 N 1014,2 10 0
11.01.2019 17:00:00 9,0 4,4 24 13 N 1013,9 15 0
11.01.2019 16:00:00 9,0 4,4 22 12 N 1013,8 15 6
11.01.2019 15:00:00 9,0 6,3 13 7 NNW 1013,9 15 18
11.01.2019 14:00:00 8,2 4,8 8 4 N 1014,2 12 0
11.01.2019 13:00:00 7,2 4,5 24 13 N 1014,4 8 6
11.01.2019 12:00:00 6,6 3,9 2 1 N 1015,2 8 0
11.01.2019 11:00:00 6,4 3,7 8 4 ONO 1015,3 8 0
11.01.2019 10:00:00 7,8 4,0 8 4 NW 1014,3 11 0
11.01.2019 09:00:00 6,4 3,9 13 7 ZZO 1014,2 12 0
11.01.2019 08:00:00 8,0 5,3 15 8 NNO 1013,1 12 0
11.01.2019 07:00:00 7,8 4,0 9 5 N 1013,0 12 0
11.01.2019 06:00:00 - - - - - - - -
11.01.2019 05:00:00 - - - - - - - -
11.01.2019 04:00:00 - - - - - - - -
11.01.2019 03:00:00 - - - - - - - -
11.01.2019 02:00:00 - - - - - - - -
11.01.2019 01:00:00 - - - - - - - -

tt = temperatuur
td = dauwpunt
ff = windsnelheid
dd = windrichting
ppp = luchtdruk
vv = zicht
sd = Zonneschijnduur

Weerstations in de omgeving